Location: Remedello Sotto
(45.2500°N, 10.3667°E)
Time: 11:16:01
(UTC+00:00)

COSMO-SKYMED 1 - Pass Details

Date: 03 February 2023
Orbit: 621 x 623 km, 97.9° (Epoch: 21 March)

Event Time Altitude Azimuth Distance (km) Brightness Sun altitude
Rises 17:06:24 0° 17° (NNE) 2,916 5.7 -7.2°
Reaches altitude 10° 17:08:40 10° 23° (NNE) 2,005 4.8 -7.6°
Maximum altitude 17:12:55 51° 100° (E) 792 2.8 -8.3°
Drops below altitude 10° 17:17:07 10° 176° (S) 1,987 5.3 -9.0°
Sets 17:19:21 0° 182° (S) 2,888 6.2 -9.4°
